User: anonymous   Login
Location: UBC Liquid-Mirror Observatory
(49.2876°N, 122.5728°W)
Time: 18:23:19
(UTC-07:00)
Language:

KITSAT 1 - Orbit

View from above orbital plane
View from above orbital plane
View from above satellite
View from above satellite

Ground track
Ground track

The orbit data is extracted from the following two-line orbital elements,

1 22077U 92052B   16121.81996647 -.00000011 +00000-0 +20574-3 0  9991
2 22077 066.0825 110.3209 0013631 240.0072 189.8527 12.86512624113970
Epoch (UTC): 30 April 2016 19:40:45
Eccentricity: 0.0013631
inclination: 66.0825°
perigee height: 1305 km
apogee height: 1326 km
right ascension of ascending node: 110.3209°
argument of perigee: 240.0072°
revolutions per day: 12.86512624
mean anomaly at epoch: 189.8527°
orbit number at epoch: 11397

The dashed part of the orbit path shows where the satellite is in the earth's shadow,  

DLR